When you browse on this site, cookies collect data to enhance your experience and personalize the content and advertising you see.
Visit our Privacy Policy to learn more. By continuing to use the site, you agree to this use of cookies and data.
  • In Romania
  • List of Countries
  • For 7 days
  • Water Temperature
  • Satellite Maps
  • Weather Map
  • Weather Widgets
  • user-avatar
    Login

    Hourly Weather Szekesfehervar

    Today, 18 January, Friday

    Time Temperature Precipitation Wind Pressure Humidity
    00:00 +5°C° 0.5 mm 4 mps 746 mmHg 88%
    01:00 +5°C° 0 mm 2 mps 746 mmHg 92%
    02:00 +4°C° 1.4 mm 3 mps 746 mmHg 89%
    03:00 +4°C° 1.4 mm 3 mps 746 mmHg 86%
    04:00 +4°C° 1.4 mm 3 mps 746 mmHg 83%
    05:00 +4°C° 0.4 mm 3 mps 747 mmHg 81%
    06:00 +3°C° 0.4 mm 4 mps 747 mmHg 79%
    07:00 +3°C° 0 mm 4 mps 747 mmHg 78%
    08:00 +3°C° 0.1 mm 4 mps 748 mmHg 77%
    09:00 +3°C° 0.1 mm 4 mps 748 mmHg 77%
    10:00 +3°C° 0.1 mm 4 mps 749 mmHg 76%
    11:00 +2°C° 0.1 mm 5 mps 749 mmHg 74%
    12:00 +2°C° 0.1 mm 5 mps 750 mmHg 71%
    13:00 +2°C° 0.1 mm 6 mps 750 mmHg 69%
    14:00 +2°C° 0 mm 5 mps 751 mmHg 69%
    15:00 +3°C° 0 mm 4 mps 751 mmHg 68%
    16:00 +2°C° 0 mm 3 mps 751 mmHg 68%
    17:00 +2°C° 0 mm 3 mps 752 mmHg 70%
    18:00 +1°C° 0 mm 3 mps 752 mmHg 72%
    19:00 0°C° 0 mm 3 mps 753 mmHg 74%
    20:00 0°C° 0 mm 3 mps 753 mmHg 74%
    21:00 -1°C° 0 mm 3 mps 754 mmHg 74%
    22:00 -1°C° 0 mm 3 mps 754 mmHg 74%
    23:00 -2°C° 0 mm 3 mps 754 mmHg 74%

    Tomorrow, 19 January, Saturday

    Time Temperature Precipitation Wind Pressure Humidity
    00:00 -2°C° 0 mm 3 mps 755 mmHg 74%
    01:00 -2°C° 0 mm 3 mps 755 mmHg 75%
    02:00 -2°C° 0 mm 2 mps 755 mmHg 75%
    03:00 -2°C° 0 mm 2 mps 755 mmHg 76%
    04:00 -2°C° 0 mm 2 mps 755 mmHg 76%
    05:00 -2°C° 0 mm 2 mps 755 mmHg 77%
    06:00 0°C° 0 mm 1 mps 755 mmHg 78%
    07:00 0°C° 0 mm 1 mps 755 mmHg 79%
    08:00 -2°C° 0 mm 2 mps 755 mmHg 75%
    09:00 -1°C° 0 mm 3 mps 755 mmHg 71%
    10:00 -1°C° 0 mm 4 mps 755 mmHg 67%
    11:00 0°C° 0 mm 4 mps 755 mmHg 63%
    12:00 0°C° 0 mm 4 mps 755 mmHg 60%
    13:00 +1°C° 0 mm 4 mps 754 mmHg 57%
    14:00 +1°C° 0 mm 3 mps 754 mmHg 59%
    15:00 +1°C° 0 mm 3 mps 754 mmHg 60%
    16:00 0°C° 0 mm 3 mps 753 mmHg 62%
    17:00 0°C° 0 mm 3 mps 753 mmHg 63%
    18:00 0°C° 0 mm 3 mps 753 mmHg 64%
    19:00 -1°C° 0 mm 3 mps 753 mmHg 65%
    20:00 -1°C° 0.1 mm 3 mps 753 mmHg 67%
    21:00 -1°C° 0.1 mm 3 mps 753 mmHg 69%
    22:00 -3°C° 0.1 mm 4 mps 752 mmHg 71%
    23:00 -2°C° 0.2 mm 3 mps 752 mmHg 77%

    Day after tomorrow, 20 January, Sunday

    Time Temperature Precipitation Wind Pressure Humidity
    00:00 -2°C° 0.2 mm 3 mps 752 mmHg 82%
    01:00 -2°C° 0.2 mm 3 mps 752 mmHg 87%
    02:00 -2°C° 0.2 mm 3 mps 751 mmHg 88%
    03:00 -2°C° 0.2 mm 3 mps 751 mmHg 89%
    04:00 -2°C° 0.2 mm 3 mps 751 mmHg 89%
    05:00 -2°C° 0.1 mm 2 mps 751 mmHg 90%
    06:00 -2°C° 0.1 mm 2 mps 750 mmHg 90%
    07:00 -2°C° 0.1 mm 2 mps 750 mmHg 90%
    08:00 -2°C° 0 mm 2 mps 751 mmHg 89%
    09:00 +1°C° 0 mm 1 mps 751 mmHg 88%
    10:00 +1°C° 0 mm 1 mps 751 mmHg 87%
    11:00 +1°C° 0 mm 1 mps 751 mmHg 85%
    12:00 +2°C° 0 mm 1 mps 751 mmHg 83%
    13:00 +2°C° 0 mm 1 mps 750 mmHg 81%
    14:00 +2°C° 0 mm 1 mps 750 mmHg 82%
    15:00 +1°C° 0 mm 2 mps 750 mmHg 82%
    16:00 +1°C° 0 mm 2 mps 751 mmHg 83%
    17:00 -1°C° 0 mm 2 mps 751 mmHg 84%
    18:00 -1°C° 0 mm 2 mps 751 mmHg 86%
    19:00 -1°C° 0 mm 2 mps 751 mmHg 87%
    20:00 -2°C° 0 mm 2 mps 752 mmHg 88%
    21:00 -2°C° 0 mm 2 mps 752 mmHg 89%
    22:00 -3°C° 0 mm 2 mps 753 mmHg 90%
    23:00 -4°C° 0 mm 3 mps 753 mmHg 89%

    21 January, Monday

    Time Temperature Precipitation Wind Pressure Humidity
    00:00 -4°C° 0 mm 3 mps 753 mmHg 88%
    01:00 -4°C° 0 mm 3 mps 754 mmHg 87%
    02:00 -4°C° 0 mm 3 mps 754 mmHg 86%
    03:00 -4°C° 0 mm 3 mps 754 mmHg 85%
    04:00 -4°C° 0 mm 2 mps 754 mmHg 84%
    05:00 -4°C° 0 mm 2 mps 754 mmHg 83%
    06:00 -4°C° 0 mm 2 mps 755 mmHg 82%
    07:00 -4°C° 0 mm 2 mps 755 mmHg 81%
    08:00 -3°C° 0 mm 2 mps 756 mmHg 77%
    09:00 -2°C° 0 mm 2 mps 756 mmHg 73%
    10:00 -2°C° 0 mm 2 mps 756 mmHg 69%
    11:00 +1°C° 0 mm 1 mps 756 mmHg 67%
    12:00 +2°C° 0 mm 1 mps 756 mmHg 65%
    13:00 +2°C° 0 mm 1 mps 756 mmHg 62%
    14:00 +2°C° 0 mm 1 mps 756 mmHg 64%
    15:00 +1°C° 0 mm 1 mps 756 mmHg 66%
    16:00 0°C° 0 mm 0 mps 756 mmHg 68%
    17:00 -1°C° 0 mm 0 mps 757 mmHg 70%
    18:00 -1°C° 0 mm 0 mps 757 mmHg 72%
    19:00 -2°C° 0 mm 0 mps 757 mmHg 74%
    20:00 -2°C° 0 mm 0 mps 757 mmHg 74%
    21:00 -2°C° 0 mm 0 mps 757 mmHg 75%
    22:00 -2°C° 0 mm 0 mps 757 mmHg 76%
    23:00 -2°C° 0 mm 0 mps 757 mmHg 76%

    22 January, Tuesday

    Time Temperature Precipitation Wind Pressure Humidity
    00:00 -2°C° 0 mm 0 mps 757 mmHg 76%
    01:00 -2°C° 0 mm 0 mps 757 mmHg 76%
    02:00 -2°C° 0 mm 0 mps 756 mmHg 76%
    03:00 -3°C° 0 mm 0 mps 756 mmHg 76%
    04:00 -3°C° 0 mm 0 mps 755 mmHg 76%
    05:00 -3°C° 0 mm 0 mps 755 mmHg 77%
    06:00 -2°C° 0 mm 1 mps 755 mmHg 77%
    07:00 -2°C° 0 mm 1 mps 754 mmHg 78%
    08:00 -2°C° 0 mm 1 mps 754 mmHg 75%
    09:00 -3°C° 0 mm 2 mps 754 mmHg 73%
    10:00 -2°C° 0 mm 2 mps 753 mmHg 70%
    11:00 -2°C° 0 mm 2 mps 752 mmHg 68%
    12:00 -1°C° 0 mm 3 mps 752 mmHg 66%
    13:00 -1°C° 0 mm 3 mps 751 mmHg 64%
    14:00 -1°C° 0 mm 3 mps 750 mmHg 67%
    15:00 -1°C° 0 mm 3 mps 749 mmHg 70%
    16:00 -2°C° 0 mm 3 mps 748 mmHg 73%
    17:00 -2°C° 0 mm 3 mps 747 mmHg 77%
    18:00 -2°C° 0 mm 3 mps 747 mmHg 82%
    19:00 -3°C° 0 mm 4 mps 746 mmHg 86%
    20:00 -3°C° 0.2 mm 4 mps 745 mmHg 88%
    21:00 -3°C° 0.2 mm 4 mps 745 mmHg 90%
    22:00 -3°C° 0.2 mm 4 mps 744 mmHg 91%
    23:00 -3°C° 0.1 mm 4 mps 743 mmHg 92%

    23 January, Wednesday

    Time Temperature Precipitation Wind Pressure Humidity
    00:00 -4°C° 0.1 mm 4 mps 742 mmHg 92%
    01:00 -4°C° 0.1 mm 4 mps 741 mmHg 92%
    02:00 -4°C° 0.1 mm 4 mps 740 mmHg 92%
    03:00 -3°C° 0.1 mm 4 mps 739 mmHg 93%
    04:00 -3°C° 0.1 mm 4 mps 739 mmHg 93%
    05:00 -3°C° 0.2 mm 4 mps 738 mmHg 94%
    06:00 -3°C° 0.2 mm 4 mps 737 mmHg 94%
    07:00 -3°C° 0.2 mm 4 mps 737 mmHg 94%
    08:00 -3°C° 0.1 mm 4 mps 736 mmHg 94%
    09:00 -2°C° 0.1 mm 4 mps 736 mmHg 94%
    10:00 -1°C° 0.1 mm 3 mps 736 mmHg 94%
    11:00 -2°C° 0.2 mm 4 mps 735 mmHg 94%
    12:00 -2°C° 0.2 mm 4 mps 734 mmHg 94%
    13:00 -1°C° 0.2 mm 4 mps 733 mmHg 94%
    14:00 -2°C° 1.3 mm 4 mps 732 mmHg 95%
    15:00 -2°C° 1.3 mm 4 mps 732 mmHg 95%
    16:00 -2°C° 1.3 mm 5 mps 731 mmHg 96%
    17:00 -1°C° 0.1 mm 5 mps 730 mmHg 96%
    18:00 -1°C° 0.1 mm 5 mps 730 mmHg 96%
    19:00 -1°C° 0.1 mm 5 mps 730 mmHg 96%
    20:00 -1°C° 0 mm 5 mps 729 mmHg 97%
    21:00 -1°C° 0 mm 5 mps 729 mmHg 97%
    22:00 -1°C° 0 mm 5 mps 728 mmHg 97%
    23:00 -1°C° 0.8 mm 5 mps 728 mmHg 98%
    Show more